Location: Chvalešovice
(49.1632°N, 14.3074°E)
Time: 07:11:37
(UTC+00:00)

Daily predictions for brighter satellites

Satellite Brightness Start Highest point End
(mag) Time Altitude Azimuth Time Altitude Azimuth Time Altitude Azimuth
NOSS 3-4 (A) 4.5 17:50:33 10° SSE 17:54:30 20° ESE 17:58:38 10° ENE
NOSS 3-4 (C) 4.5 17:50:45 10° SSE 17:54:38 19° ESE 17:58:42 10° ENE
Cosmos 2219 Rocket 3.8 17:50:33 10° NW 17:55:48 39° WSW 18:01:00 10° S
Exosat Rocket 4.1 17:51:00 10° SSW 17:56:19 83° WNW 18:03:27 10° NNE
Cosmos 1805 3.7 17:53:48 10° SSE 17:57:21 38° E 18:00:55 10° NNE
YAOGAN 1 2.9 17:54:38 10° S 17:58:55 71° WSW 18:03:16 10° NNW
CZ-4B R/B 3.3 17:53:55 10° SSE 17:59:35 86° ENE 18:05:14 10° NNW
USA 267 3.5 17:53:47 10° SE 18:00:22 76° SW 18:06:58 10° WNW
BREEZE-M DEB (TANK) 4.2 17:56:46 10° WNW 18:00:50 23° SW 18:03:03 10° S
Cosmos 1980 3.8 17:56:10 10° NNW 18:01:51 68° ENE 18:07:31 10° SE
Okean 1-7 4.0 17:58:30 10° NNW 18:02:47 54° W 18:07:00 10° S
Cosmos 1802 Rocket 4.1 17:58:38 10° N 18:04:57 87° E 18:11:19 10° S
ATLAS 3B R/B 4.4 17:59:21 10° NW 18:05:18 26° N 18:11:30 10° ENE
Cosmos 2016 Rocket 3.9 18:01:27 10° N 18:07:36 78° E 18:13:44 10° SSE
Cosmos 1741 Rocket 4.0 18:02:36 10° NNW 18:07:51 83° ENE 18:13:04 10° SSE
CZ-4C R/B 3.6 18:02:15 10° NW 18:08:23 37° NNE 18:15:44 10° E
Cosmos 1733 3.1 18:04:48 10° S 18:08:31 65° E 18:12:15 10° NNE
Meteor 2-10 4.0 18:04:11 10° S 18:09:07 59° E 18:14:10 10° NNE
CENTAUR R/B 3.9 18:02:15 10° NW 18:10:18 59° WSW 18:19:08 10° SSE
IGS 5A 3.4 18:07:12 10° SSE 18:11:19 78° ENE 18:15:28 10° N
Okean-O 3.4 18:09:47 10° SE 18:13:46 34° ENE 18:17:47 10° N
SJ 16-02 3.4 18:11:45 10° NNE 18:13:51 13° NE 18:15:57 10° ENE
Okean O Rocket 1.6 18:10:31 10° SSE 18:14:55 86° ENE 18:19:20 10° NNW
Cosmos 2123 Rocket 4.0 18:09:14 10° S 18:15:31 78° E 18:21:52 10° NNE
Lacrosse 5 rocket 1.4 18:13:07 10° SW 18:17:23 61° SE 18:21:27 10° ENE
Okean 2 3.3 18:13:49 10° N 18:17:55 82° E 18:22:00 10° SSE
Cosmos 2242 Rocket 3.9 18:14:37 10° NNW 18:19:13 77° W 18:23:44 10° S
Cosmos 2297 Rocket 2.3 18:15:07 10° S 18:20:33 52° ESE 18:26:02 10° NE
Cosmos 2098 Rocket 4.0 18:15:32 10° S 18:21:20 90° WNW 18:28:11 10° N
NOSS 3-2 (C) 4.2 18:17:50 10° NW 18:25:16 79° SW 18:33:55 10° SSE
COSMOS 2428 4.2 18:20:02 10° NW 18:25:18 38° WSW 18:30:33 10° S
Iridium 4 Rocket 2.9 18:22:35 10° N 18:26:46 82° E 18:30:59 10° S
SJ-6B 2.7 18:24:28 10° SSE 18:28:20 84° ENE 18:32:10 10° NNW
Cosmos 1271 Rocket 3.5 18:25:53 10° SSE 18:29:09 29° E 18:32:23 10° NNE
GEOS 3 Rocket 3.7 18:25:46 10° NE 18:31:08 63° SE 18:36:28 10° SSW
PLATFORM 4.5 18:29:51 10° SSW 18:33:30 66° SE 18:37:13 10° NE
Cosmos 1975 4.3 18:30:56 10° SW 18:34:41 41° WNW 18:38:30 10° N
Cosmos 2219 3.8 18:30:30 10° SSE 18:35:23 32° ESE 18:40:17 10° NE
ISS -3.6 18:32:04 10° WNW 18:35:25 67° NNE 18:37:31 21° E
Cosmos 1726 2.2 18:32:34 10° SSW 18:36:03 74° W 18:39:36 10° N
SL-14 R/B 3.5 18:32:41 10° NNW 18:36:31 70° W 18:40:18 10° S
Cosmos 2227 Rocket 2.5 18:31:45 10° S 18:37:04 43° ESE 18:42:24 10° NE
USA 238 DEB 4.1 18:32:10 10° NW 18:39:28 79° SW 18:47:15 10° SSE
USA 238 4.0 18:32:16 10° NW 18:39:34 80° SW 18:47:20 10° SSE
Cosmos 1869 Rocket 4.3 18:38:12 10° SSW 18:42:27 57° WNW 18:46:46 10° N
Cosmos 1470 3.8 18:42:55 21° ESE 18:44:16 26° E 18:47:32 10° NNE
USA 186 2.1 18:42:43 10° S 18:45:47 65° WSW 18:48:56 10° NNW
IRS-1C Rocket 4.1 18:46:25 11° SSE 18:51:25 65° ENE 18:56:40 10° N
SL-16 R/B 2.4 18:46:25 10° NNW 18:52:02 55° NE 18:55:39 22° SE
Geosat 4.3 18:49:19 20° ESE 18:52:35 53° NE 18:57:28 10° NNW
BlueWalker 3 2.9 18:52:25 10° SSW 18:55:44 27° SE 18:55:50 27° SE
Meteor 1-12 Rocket 4.5 18:50:31 10° SSE 18:55:59 46° E 19:01:24 10° NNE
BREEZE M DEB (TANK) 1.7 18:53:44 10° W 18:56:05 79° N 18:56:43 43° E
Landsat 7 4.2 18:52:39 10° S 18:57:19 64° WSW 19:02:01 10° NNW
BREEZE-M DEB (TANK) 2.7 18:51:31 10° W 18:57:25 83° SSW 18:58:35 34° ESE
Cosmos 2233 Rocket 4.2 18:53:37 10° NNW 18:59:45 71° W 19:05:55 10° S
Cosmos 1867 4.2 18:56:26 10° SW 19:01:49 60° NW 19:07:14 10° NE
CSL-04 Rocket 4.0 18:58:35 10° S 19:04:07 70° WSW 19:09:39 10° NNW
USA 215 3.7 19:00:40 10° ENE 19:07:06 61° NNW 19:13:29 10° W
Meteor 2-5 Rocket 3.9 19:02:41 10° N 19:08:28 58° ENE 19:12:02 24° SE
H-2A R/B 3.6 19:08:18 28° E 19:09:06 30° ENE 19:12:58 10° N
Terra 3.4 19:09:42 18° ENE 19:10:13 19° ENE 19:13:28 10° NNE
Cosmos 1992 Rocket 4.5 19:07:58 21° SSE 19:10:40 35° ESE 19:15:23 10° NE
Cosmos 1486 Rocket 4.4 19:09:18 10° NNW 19:14:27 47° ENE 19:16:23 33° ESE
Cosmos 1674 Rocket 3.5 19:14:51 10° N 19:19:12 84° W 19:21:46 24° S
Cosmos 2263 Rocket 3.3 19:21:15 24° ENE 19:21:15 24° ENE 19:24:13 10° NE
SL-4 R/B 2.2 19:15:16 10° SW 19:19:53 63° SSE 19:21:29 38° E
Cosmos 1733 Rocket 3.4 19:16:19 10° SSW 19:20:35 63° WNW 19:24:54 10° N
Meteor 2-13 Rocket 4.5 19:15:48 10° S 19:21:58 84° W 19:28:11 10° N
Resurs 01 Rocket 1.6 19:19:50 24° S 19:22:27 83° WSW 19:26:54 10° NNW
Cosmos 1766 4.0 19:18:50 10° SSW 19:22:32 51° WNW 19:26:16 10° N
Cosmos 2034 Rocket 4.3 19:16:59 10° N 19:22:56 46° ENE 19:25:07 33° ESE
Cosmos 2237 Rocket 3.7 19:18:24 10° NW 19:23:26 34° WSW 19:28:25 10° S
IRS-1A Rocket 4.3 19:20:24 28° SE 19:23:38 68° ENE 19:29:26 10° N
CARTOSAT-1 3.5 19:23:13 42° SE 19:24:31 68° ENE 19:28:49 10° N
ATLAS CENTAUR R/B 4.3 19:11:49 10° WSW 19:27:36 75° NNW 19:34:45 10° NE
Cosmos 1378 Rocket 3.9 19:23:23 10° NNW 19:27:47 67° W 19:30:39 21° S
CZ-4 R/B 4.3 19:26:10 10° WSW 19:28:08 13° W 19:30:08 10° WNW
MOS 1 4.2 19:24:48 25° SSE 19:28:18 85° ENE 19:34:03 10° NNW
SPOT 1/Viking Rocket 4.0 19:30:08 15° S 19:34:21 61° WSW 19:39:32 10° NNW
Cosmos 968 Rocket 4.5 19:29:44 10° NW 19:34:35 42° WSW 19:38:31 15° S
Cosmos 1072 Rocket 4.5 19:31:17 10° N 19:37:45 87° E 19:41:30 26° S
Cosmos 1025 Rocket 3.5 19:35:06 10° N 19:38:54 43° ENE 19:38:54 43° ENE
Landsat 5 3.6 19:35:59 10° N 19:39:51 66° WNW 19:43:41 11° SSW
ERS-1 Rocket 3.5 19:42:33 40° ENE 19:42:52 41° ENE 19:47:34 10° N
NOSS 3-4 (A) 3.3 19:38:48 10° SW 19:44:28 84° NW 19:50:43 10° NE
NOSS 3-4 (C) 3.3 19:38:56 10° SW 19:44:35 85° NW 19:50:49 10° NE
FALCON 9 R/B 4.1 19:27:29 10° W 19:46:55 36° SSW 19:50:25 27° SSE
Meteor 1-22 Rocket 4.3 19:42:34 10° S 19:48:41 90° E 19:54:45 10° NNE
Okean-O 4.4 19:46:22 10° SSW 19:50:14 30° W 19:54:09 10° NNW
SJ 16-02 1.2 19:48:41 10° NNW 19:53:05 81° ENE 19:53:10 81° E
Cosmos 1908 Rocket 3.6 19:51:55 48° SSW 19:53:08 82° WNW 19:57:37 10° N
Cosmos 1340 Rocket 3.3 19:50:04 10° N 19:53:10 49° NNE 19:53:10 49° NNE
Cosmos 1943 3.4 19:49:32 10° NNW 19:55:02 51° NE 19:55:47 48° E
SPOT 5 2.8 19:55:00 62° E 19:55:09 63° ENE 20:00:03 10° N
Cosmos 1603 4.2 19:50:24 10° NNW 19:55:51 43° NE 19:56:35 41° ENE
Lacrosse 5 rocket 2.6 19:52:26 10° W 19:56:25 39° NNW 19:58:03 26° NNE
CZ-4C R/B 2.9 19:50:34 10° NW 19:57:42 87° SW 20:00:55 42° SE
USA 245 3.9 19:58:52 47° NNE 19:58:52 47° NNE 20:02:10 10° N
ATLAS 3B R/B 3.8 19:51:10 10° NW 19:58:09 40° NNE 20:01:27 28° ENE
Cosmos 1354 Rocket 4.2 19:54:26 10° NNW 19:59:38 55° ENE 19:59:53 54° ENE
Ariane Rocket 2.9 19:59:14 64° SSE 20:00:03 88° ENE 20:05:09 10° NNW
Cosmos 2297 Rocket 3.9 19:59:46 10° WSW 20:04:51 33° NW 20:09:58 10° NNE
Cosmos 1464 Rocket 4.3 19:58:33 10° NNW 20:04:53 68° W 20:08:13 29° SSW
Meteor 1-24 Rocket 4.3 20:02:11 10° NNW 20:08:02 59° W 20:10:55 30° SSW
Spot 2 Rocket 3.5 20:10:39 68° ENE 20:10:39 68° ENE 20:15:42 10° N
Cosmos 1975 Rocket 3.3 20:07:01 10° N 20:10:49 63° N 20:10:49 63° N
ISS -1.5 20:08:58 10° W 20:10:27 22° W 20:10:27 22° W
Cosmos 2082 3.6 20:07:21 10° SSW 20:12:59 85° WNW 20:18:39 10° NNE
Cosmos 2219 4.0 20:13:54 10° SW 20:19:19 49° NW 20:24:48 10° NNE
Cosmos 2227 Rocket 3.6 20:15:56 10° WSW 20:21:12 38° NW 20:26:29 10° NNE
ARIANE 5 R/B 4.4 20:23:23 23° NNE 20:23:23 23° NNE 20:25:37 10° N
Cosmos 2344 4.4 20:16:51 10° NW 20:24:51 54° NE 20:28:56 36° E
Cosmos 1782 Rocket 4.3 20:28:08 51° NNW 20:28:08 51° NNW 20:31:34 10° N
ADEOS Rocket 3.1 20:29:34 66° SSE 20:30:40 86° ENE 20:37:56 10° NNW
SL-16 R/B 3.7 20:31:03 10° NW 20:35:50 29° WSW 20:37:33 24° SW
Aureole 1 Rocket 4.4 20:34:04 10° NNW 20:36:44 33° NNW 20:36:44 33° NNW
H-2A R/B 4.0 20:44:38 35° W 20:44:38 35° W 20:48:24 10° NNW
Cosmos 1634 Rocket 3.9 20:39:47 10° N 20:46:10 89° WSW 20:46:14 88° S
Terra 2.5 20:48:27 51° NW 20:48:27 51° NW 20:52:06 10° NNW
SPOT 3 Rocket 4.2 20:48:30 50° W 20:48:30 50° W 20:53:33 10° NNW
USA 215 4.1 20:45:42 22° ENE 20:49:33 45° N 20:55:42 10° WNW
NOSS 3-1 (C) 4.5 20:43:28 10° NW 20:50:11 48° NE 20:51:49 43° ENE
SL-4 R/B 4.1 20:54:41 10° W 20:56:45 25° W 20:56:45 25° W
SME Rocket 4.4 20:59:14 68° SSW 21:00:11 77° WSW 21:06:03 10° NNW
Cosmos 2263 Rocket 2.7 21:02:47 54° WNW 21:03:09 55° NW 21:08:38 10° NNE
ATLAS 2AS CENTAUR R/B 3.3 21:18:46 52° NE 21:18:46 52° NE 21:24:04 10° NE
H-2A R/B 4.3 21:12:43 10° N 21:14:08 20° N 21:14:08 20° N
SJ 16-02 4.2 21:29:08 10° WNW 21:30:05 12° W 21:30:05 12° W
Lacrosse 5 rocket 4.2 21:32:34 10° WNW 21:33:25 14° NW 21:33:25 14° NW
ATLAS CENTAUR R/B 4.1 21:33:14 10° WNW 21:43:19 44° N 21:44:59 37° NNE
CZ-4C R/B 4.4 21:39:49 10° WNW 21:45:50 26° WSW 21:46:05 26° WSW
ATLAS 3B R/B 3.0 21:42:02 10° NW 21:48:41 70° WNW 21:48:41 70° WNW
NOSS 3-1 (A) 4.2 21:49:53 10° NW 21:56:43 60° NE 21:56:43 60° NE
Cosmos 2082 Rocket 4.2 22:00:47 10° N 22:04:36 21° NNE 22:04:36 21° NNE
Cosmos 1833 Rocket 4.2 22:03:28 10° NNW 22:06:52 32° N 22:06:52 32° N
USA 215 3.8 22:33:00 53° NNW 22:33:00 53° NNW 22:38:23 10° WNW
Cosmos 2344 4.4 22:31:06 10° NW 22:38:56 56° WSW 22:38:56 56° WSW
Cosmos 1844 Rocket 4.4 22:56:38 28° N 22:56:38 28° N 22:59:50 10° NNE
ATLAS 2AS CENTAUR R/B 3.9 23:06:05 33° WNW 23:08:19 40° NNW 23:15:03 10° NE
SL-16 R/B 4.2 23:34:13 24° ENE 23:35:15 25° NE 23:40:09 10° N
Cosmos 2082 Rocket 4.1 23:44:17 10° NNW 23:46:25 24° NNW 23:46:25 24° NNW
